Location: Andershausen
(51.8462°N, 9.8595°E)
Time: 06:56:31
(UTC+00:00)

Cosmos 2227 Rocket - Pass Details

Date: 18 November 2025
Orbit: 839 x 842 km, 71.0° (Epoch: 11 December)

Event Time Altitude Azimuth Distance (km) Brightness Sun altitude
Rises 17:30:50 0° 314° (NW) 3,404 5.9 -18.9°
Reaches altitude 10° 17:35:44 10° 352° (N) 2,468 4.6 -19.7°
Maximum altitude 17:37:03 11° 5° (N) 2,414 4.5 -19.9°
Drops below altitude 10° 17:38:22 10° 19° (NNE) 2,467 4.4 -20.1°
Enters shadow 17:38:32 10° 21° (NNE) 2,482 4.4 -20.1°
